| time (UTC) | temp F | wind direction | speed MPH | gust MPH | rain 1hr in | rain 24hr in | rain mn in | humidity % | barometer mb |
| 20260509104553 | 50 | 0 | 0.0 | 2.0 | 0.00 | 0.00 | 0.00 | 61 | 1007.6 |
| 20260509103055 | 50 | 0 | 0.0 | 0.0 | 0.00 | 0.00 | 0.00 | 60 | 1007.7 |
| 20260509101600 | 51 | 221 | 0.0 | 0.0 | 0.00 | 0.00 | 0.00 | 59 | 1007.6 |
| 20260509100055 | 51 | 0 | 0.0 | 0.0 | 0.00 | 0.00 | 0.00 | 59 | 1007.7 |
| 20260509094600 | 51 | 0 | 0.0 | 3.0 | 0.00 | 0.00 | 0.00 | 58 | 1007.8 |
| 20260509093100 | 52 | 0 | 0.0 | 0.0 | 0.00 | 0.00 | 0.00 | 55 | 1007.7 |
| 20260509091554 | 53 | 214 | 1.0 | 2.0 | 0.00 | 0.00 | 0.00 | 53 | 1007.7 |
| 20260509090106 | 52 | 0 | 0.0 | 0.0 | 0.00 | 0.00 | 0.00 | 55 | 1007.7 |
| 20260509084600 | 53 | 0 | 1.0 | 2.0 | 0.00 | 0.00 | 0.00 | 51 | 1007.6 |
| 20260509083101 | 53 | 0 | 0.0 | 0.0 | 0.00 | 0.00 | 0.00 | 49 | 1007.5 |
| 20260509081557 | 54 | 0 | 0.0 | 2.0 | 0.00 | 0.00 | 0.00 | 48 | 1007.6 |
| 20260509080100 | 54 | 0 | 0.0 | 0.0 | 0.00 | 0.00 | 0.00 | 48 | 1007.6 |
| 20260509074601 | 55 | 0 | 0.0 | 2.0 | 0.00 | 0.00 | 0.00 | 47 | 1007.6 |
| 20260509073056 | 56 | 0 | 0.0 | 2.0 | 0.00 | 0.00 | 0.00 | 46 | 1007.6 |
| 20260509071555 | 56 | 346 | 0.0 | 1.0 | 0.00 | 0.00 | 0.00 | 46 | 1007.7 |
| 20260509070058 | 56 | 0 | 0.0 | 0.0 | 0.00 | 0.00 | 0.00 | 45 | 1007.8 |
| 20260509064556 | 57 | 0 | 0.0 | 0.0 | 0.00 | 0.00 | 0.00 | 45 | 1007.8 |
| 20260509063106 | 57 | 0 | 0.0 | 0.0 | 0.00 | 0.00 | 0.00 | 44 | 1007.9 |
| 20260509061557 | 58 | 0 | 0.0 | 4.0 | 0.00 | 0.00 | 0.00 | 43 | 1008.0 |
| 20260509060104 | 59 | 0 | 0.0 | 3.0 | 0.00 | 0.00 | 0.00 | 42 | 1007.9 |
| 20260509054606 | 60 | 0 | 0.0 | 7.0 | 0.00 | 0.00 | 0.00 | 41 | 1007.8 |
| 20260509053134 | 61 | 335 | 0.0 | 10.0 | 0.00 | 0.00 | 0.00 | 39 | 1007.8 |
| 20260509051556 | 62 | 337 | 1.0 | 12.0 | 0.00 | 0.00 | 0.00 | 37 | 1007.8 |
| 20260509050056 | 64 | 0 | 1.0 | 8.0 | 0.00 | 0.00 | 0.00 | 36 | 1007.7 |
| 20260509044555 | 65 | 0 | 0.0 | 9.0 | 0.00 | 0.00 | 0.00 | 34 | 1007.6 |
| 20260509043105 | 64 | 0 | 1.0 | 6.0 | 0.00 | 0.00 | 0.00 | 34 | 1007.4 |
| 20260509041603 | 64 | 0 | 0.0 | 7.0 | 0.00 | 0.00 | 0.00 | 33 | 1007.3 |
| 20260509040114 | 65 | 0 | 0.0 | 5.0 | 0.00 | 0.00 | 0.00 | 33 | 1007.3 |
| 20260509034605 | 65 | 0 | 0.0 | 1.0 | 0.00 | 0.00 | 0.00 | 32 | 1007.3 |
| 20260509033056 | 66 | 0 | 0.0 | 5.0 | 0.00 | 0.00 | 0.00 | 31 | 1007.2 |
| 20260509031606 | 67 | 290 | 0.0 | 7.0 | 0.00 | 0.00 | 0.00 | 30 | 1007.0 |
| 20260509030058 | 66 | 0 | 1.0 | 4.0 | 0.00 | 0.00 | 0.00 | 30 | 1006.9 |
| 20260509024555 | 66 | 0 | 0.0 | 5.0 | 0.00 | 0.00 | 0.00 | 30 | 1006.7 |
| 20260509023057 | 67 | 0 | 0.0 | 3.0 | 0.00 | 0.00 | 0.00 | 28 | 1006.4 |
| 20260509021555 | 69 | 295 | 1.0 | 3.0 | 0.00 | 0.00 | 0.00 | 27 | 1006.2 |
| 20260509020056 | 70 | 0 | 0.0 | 2.0 | 0.00 | 0.00 | 0.00 | 26 | 1006.0 |
| 20260509014602 | 71 | 307 | 0.0 | 5.0 | 0.00 | 0.00 | 0.00 | 25 | 1005.8 |
| 20260509013107 | 72 | 302 | 1.0 | 4.0 | 0.00 | 0.00 | 0.00 | 24 | 1005.8 |
| 20260509011555 | 72 | 312 | 1.0 | 8.0 | 0.00 | 0.00 | 0.00 | 23 | 1005.8 |
| 20260509010058 | 73 | 321 | 1.0 | 7.0 | 0.00 | 0.00 | 0.00 | 24 | 1005.8 |
| 20260509004601 | 74 | 323 | 2.0 | 12.0 | 0.00 | 0.00 | 0.00 | 25 | 1005.7 |
| 20260509003056 | 75 | 330 | 2.0 | 10.0 | 0.00 | 0.00 | 0.00 | 25 | 1005.5 |
| 20260509001555 | 75 | 336 | 2.0 | 12.0 | 0.00 | 0.00 | 0.00 | 25 | 1005.4 |
| 20260509000056 | 75 | 334 | 0.0 | 3.0 | 0.00 | 0.00 | 0.00 | 28 | 1005.4 |
| 20260508234555 | 74 | 0 | 0.0 | 3.0 | 0.00 | 0.00 | 0.00 | 29 | 1005.4 |
| 20260508233110 | 74 | 302 | 0.0 | 8.0 | 0.00 | 0.00 | 0.00 | 29 | 1005.5 |
| 20260508231559 | 74 | 0 | 0.0 | 4.0 | 0.00 | 0.00 | 0.00 | 29 | 1005.5 |
| 20260508230107 | 74 | 308 | 1.0 | 3.0 | 0.00 | 0.00 | 0.00 | 30 | 1005.5 |
| 20260508224555 | 74 | 0 | 2.0 | 9.0 | 0.00 | 0.00 | 0.00 | 29 | 1005.4 |
| 20260508223058 | 74 | 8 | 3.0 | 23.0 | 0.00 | 0.00 | 0.00 | 30 | 1005.5 |
| 20260508221556 | 76 | 225 | 0.0 | 13.0 | 0.00 | 0.00 | 0.00 | 27 | 1005.8 |
| 20260508220059 | 78 | 192 | 1.0 | 8.0 | 0.00 | 0.00 | 0.00 | 26 | 1005.8 |
| 20260508214605 | 77 | 225 | 1.0 | 5.0 | 0.00 | 0.00 | 0.00 | 27 | 1005.8 |
| 20260508213056 | 77 | 206 | 2.0 | 8.0 | 0.00 | 0.00 | 0.00 | 26 | 1006.0 |
| 20260508211555 | 78 | 195 | 1.0 | 12.0 | 0.00 | 0.00 | 0.00 | 25 | 1006.2 |
| 20260508210057 | 77 | 0 | 1.0 | 7.0 | 0.00 | 0.00 | 0.00 | 27 | 1006.4 |
| 20260508204555 | 76 | 0 | 1.0 | 9.0 | 0.00 | 0.00 | 0.00 | 27 | 1006.7 |
| 20260508203103 | 76 | 0 | 1.0 | 8.0 | 0.00 | 0.00 | 0.00 | 28 | 1007.0 |
| 20260508201556 | 75 | 0 | 1.0 | 8.0 | 0.00 | 0.00 | 0.00 | 28 | 1007.2 |
| 20260508200100 | 75 | 297 | 1.0 | 6.0 | 0.00 | 0.00 | 0.00 | 28 | 1007.2 |
| 20260508194559 | 75 | 0 | 0.0 | 7.0 | 0.00 | 0.00 | 0.00 | 28 | 1007.5 |
| 20260508193113 | 75 | 209 | 1.0 | 3.0 | 0.00 | 0.00 | 0.00 | 29 | 1007.6 |
| 20260508191613 | 76 | 0 | 2.0 | 12.0 | 0.00 | 0.00 | 0.00 | 27 | 1007.7 |
| 20260508190058 | 76 | 184 | 1.0 | 14.0 | 0.00 | 0.00 | 0.00 | 27 | 1007.8 |
| 20260508184557 | 76 | 0 | 0.0 | 9.0 | 0.00 | 0.00 | 0.00 | 26 | 1008.0 |
| 20260508183057 | 75 | 201 | 2.0 | 13.0 | 0.00 | 0.00 | 0.00 | 30 | 1008.2 |
| 20260508181558 | 74 | 0 | 1.0 | 10.0 | 0.00 | 0.00 | 0.00 | 29 | 1008.5 |
| 20260508180057 | 74 | 215 | 1.0 | 5.0 | 0.00 | 0.00 | 0.00 | 30 | 1008.6 |
| 20260508174557 | 74 | 0 | 1.0 | 8.0 | 0.00 | 0.00 | 0.00 | 29 | 1008.7 |
| 20260508173056 | 74 | 184 | 1.0 | 5.0 | 0.00 | 0.00 | 0.00 | 27 | 1008.9 |
| 20260508171605 | 73 | 0 | 0.0 | 3.0 | 0.00 | 0.00 | 0.00 | 33 | 1009.0 |
| 20260508170100 | 72 | 0 | 1.0 | 3.0 | 0.00 | 0.00 | 0.00 | 34 | 1009.1 |
| 20260508164557 | 71 | 0 | 0.0 | 0.0 | 0.00 | 0.00 | 0.00 | 37 | 1009.2 |
| 20260508163059 | 71 | 358 | 0.0 | 1.0 | 0.00 | 0.00 | 0.00 | 33 | 1009.2 |
| 20260508161602 | 70 | 0 | 0.0 | 3.0 | 0.00 | 0.00 | 0.00 | 30 | 1009.2 |
| 20260508160058 | 71 | 94 | 0.0 | 2.0 | 0.00 | 0.00 | 0.00 | 37 | 1009.4 |
| 20260508154559 | 71 | 0 | 0.0 | 3.0 | 0.00 | 0.00 | 0.00 | 32 | 1009.3 |
| 20260508153058 | 70 | 151 | 0.0 | 2.0 | 0.00 | 0.00 | 0.00 | 37 | 1009.2 |
| 20260508151557 | 69 | 0 | 0.0 | 2.0 | 0.00 | 0.00 | 0.00 | 38 | 1009.5 |
| 20260508150057 | 68 | 0 | 0.0 | 0.0 | 0.00 | 0.00 | 0.00 | 42 | 1009.5 |
| 20260508144603 | 66 | 0 | 0.0 | 2.0 | 0.00 | 0.00 | 0.00 | 47 | 1009.5 |
| 20260508143105 | 64 | 0 | 0.0 | 1.0 | 0.00 | 0.00 | 0.00 | 47 | 1009.6 |
| 20260508141557 | 62 | 0 | 0.0 | 0.0 | 0.00 | 0.00 | 0.00 | 47 | 1009.8 |
| 20260508140059 | 59 | 0 | 0.0 | 0.0 | 0.00 | 0.00 | 0.00 | 50 | 1009.8 |
| 20260508134559 | 57 | 0 | 0.0 | 2.0 | 0.00 | 0.00 | 0.00 | 55 | 1009.8 |
| 20260508133100 | 57 | 0 | 0.0 | 2.0 | 0.00 | 0.00 | 0.00 | 56 | 1009.8 |
| 20260508131600 | 56 | 187 | 0.0 | 2.0 | 0.00 | 0.00 | 0.00 | 53 | 1009.8 |
| 20260508130110 | 56 | 0 | 0.0 | 1.0 | 0.00 | 0.00 | 0.00 | 54 | 1009.4 |
| 20260508124559 | 55 | 0 | 0.0 | 0.0 | 0.00 | 0.00 | 0.00 | 51 | 1009.2 |
| 20260508123109 | 54 | 0 | 1.0 | 2.0 | 0.00 | 0.00 | 0.00 | 53 | 1009.2 |
| 20260508121607 | 54 | 0 | 0.0 | 1.0 | 0.00 | 0.00 | 0.00 | 55 | 1009.2 |
| 20260508120059 | 53 | 0 | 0.0 | 0.0 | 0.00 | 0.00 | 0.00 | 52 | 1009.2 |
| 20260508114555 | 53 | 0 | 0.0 | 3.0 | 0.00 | 0.00 | 0.00 | 56 | 1009.4 |
| 20260508113109 | 52 | 0 | 1.0 | 3.0 | 0.00 | 0.00 | 0.00 | 54 | 1009.3 |
| 20260508111556 | 52 | 0 | 0.0 | 0.0 | 0.00 | 0.00 | 0.00 | 55 | 1009.5 |
| 20260508110057 | 53 | 0 | 0.0 | 0.0 | 0.00 | 0.00 | 0.00 | 50 | 1009.5 |